Time,TemperatureF,DewpointF,PressureIn,WindDirection,WindDirectionDegrees,WindSpeedMPH,WindSpeedGustMPH,Humidity,HourlyPrecipIn,Conditions,Clouds,dailyrainin,SoftwareType,DateUTC
2013-03-25 00:00:00,52.3,11.2,30.00,West,270,0.0,0.0,19,0.00,CLR,,0.00,WeatherDisplay:10.37,2013-03-25 07:00:00,
2013-03-25 00:05:00,52.1,11.0,30.00,West,270,0.0,0.0,19,0.00,CLR,,0.00,WeatherDisplay:10.37,2013-03-25 07:05:00,
2013-03-25 00:10:00,51.9,10.9,30.00,West,263,0.0,0.0,19,0.00,CLR,,0.00,WeatherDisplay:10.37,2013-03-25 07:10:00,
2013-03-25 00:15:00,51.6,10.6,29.99,WSW,244,0.0,0.0,19,0.00,CLR,,0.00,WeatherDisplay:10.37,2013-03-25 07:15:00,
2013-03-25 00:20:00,51.4,10.5,29.99,SW,228,0.0,0.0,19,0.00,CLR,,0.00,WeatherDisplay:10.37,2013-03-25 07:20:00,
2013-03-25 00:25:00,51.4,11.6,30.00,SW,225,0.0,0.0,20,0.00,CLR,,0.00,WeatherDisplay:10.37,2013-03-25 07:25:00,
2013-03-25 00:30:00,51.3,11.5,30.00,SW,234,0.0,0.0,20,0.00,CLR,,0.00,WeatherDisplay:10.37,2013-03-25 07:30:00,
2013-03-25 00:40:00,51.1,11.3,30.00,WSW,247,0.0,0.0,20,0.00,CLR,,0.00,WeatherDisplay:10.37,2013-03-25 07:40:00,
2013-03-25 00:50:00,50.9,11.2,30.00,SW,225,0.0,0.0,20,0.00,CLR,,0.00,WeatherDisplay:10.37,2013-03-25 07:50:00,
2013-03-25 01:00:00,50.3,10.6,29.99,SW,215,0.0,0.0,20,0.00,CLR,,0.00,WeatherDisplay:10.37,2013-03-25 08:00:00,
2013-03-25 01:05:00,49.8,10.3,29.99,SW,217,0.0,0.0,20,0.00,CLR,,0.00,WeatherDisplay:10.37,2013-03-25 08:05:00,
2013-03-25 01:10:00,49.6,10.1,29.99,SW,225,0.0,0.0,20,0.00,CLR,,0.00,WeatherDisplay:10.37,2013-03-25 08:10:00,
2013-03-25 01:20:00,49.3,9.8,29.99,SW,225,0.0,0.0,20,0.00,CLR,,0.00,WeatherDisplay:10.37,2013-03-25 08:20:00,
2013-03-25 01:25:00,49.3,9.8,29.99,SW,232,0.0,0.0,20,0.00,CLR,,0.00,WeatherDisplay:10.37,2013-03-25 08:25:00,
2013-03-25 01:30:00,49.2,9.8,29.99,WSW,244,0.0,0.0,20,0.00,CLR,,0.00,WeatherDisplay:10.37,2013-03-25 08:30:00,
2013-03-25 01:40:00,48.9,10.6,30.00,WSW,248,0.0,0.0,21,0.00,CLR,,0.00,WeatherDisplay:10.37,2013-03-25 08:40:00,
2013-03-25 01:50:00,48.4,10.2,29.99,WSW,248,0.0,0.0,21,0.00,CLR,,0.00,WeatherDisplay:10.37,2013-03-25 08:50:00,
2013-03-25 02:00:00,47.8,10.8,29.99,WSW,248,0.0,0.0,22,0.00,CLR,,0.00,WeatherDisplay:10.37,2013-03-25 09:00:00,
2013-03-25 02:05:00,47.5,10.5,29.99,WSW,248,0.0,0.0,22,0.00,CLR,,0.00,WeatherDisplay:10.37,2013-03-25 09:05:00,
2013-03-25 02:10:00,47.1,10.2,29.99,WSW,248,0.0,0.0,22,0.00,CLR,,0.00,WeatherDisplay:10.37,2013-03-25 09:10:00,
2013-03-25 02:20:00,46.4,9.6,29.99,WSW,248,0.0,0.0,22,0.00,CLR,,0.00,WeatherDisplay:10.37,2013-03-25 09:20:00,
2013-03-25 02:25:00,46.4,9.6,29.99,WSW,248,0.0,0.0,22,0.00,CLR,,0.00,WeatherDisplay:10.37,2013-03-25 09:25:00,
2013-03-25 02:30:00,46.3,10.5,29.99,WSW,248,0.0,0.0,23,0.00,CLR,,0.00,WeatherDisplay:10.37,2013-03-25 09:30:00,
2013-03-25 02:40:00,46.2,10.4,29.99,WSW,248,0.0,0.0,23,0.00,CLR,,0.00,WeatherDisplay:10.37,2013-03-25 09:40:00,
2013-03-25 02:50:00,46.2,10.4,30.00,WSW,248,0.0,0.0,23,0.00,CLR,,0.00,WeatherDisplay:10.37,2013-03-25 09:50:00,
2013-03-25 03:00:00,46.0,11.2,29.99,WSW,248,0.0,0.0,24,0.00,CLR,,0.00,WeatherDisplay:10.37,2013-03-25 10:00:00,
2013-03-25 03:05:00,46.0,11.2,29.99,WSW,248,0.0,0.0,24,0.00,CLR,,0.00,WeatherDisplay:10.37,2013-03-25 10:05:00,
2013-03-25 03:10:00,45.7,10.9,29.99,WSW,248,0.0,0.0,24,0.00,CLR,,0.00,WeatherDisplay:10.37,2013-03-25 10:10:00,
2013-03-25 03:20:00,45.3,11.5,29.99,WSW,248,0.0,0.0,25,0.00,CLR,,0.00,WeatherDisplay:10.37,2013-03-25 10:20:00,
2013-03-25 03:25:00,45.3,11.5,29.99,WSW,248,0.0,0.0,25,0.00,CLR,,0.00,WeatherDisplay:10.37,2013-03-25 10:25:00,
2013-03-25 03:30:00,45.1,11.3,30.00,SW,234,0.0,0.0,25,0.00,CLR,,0.00,WeatherDisplay:10.37,2013-03-25 10:30:00,
2013-03-25 03:40:00,45.0,11.2,29.99,SSW,202,0.0,0.0,25,0.00,CLR,,0.00,WeatherDisplay:10.37,2013-03-25 10:40:00,
2013-03-25 03:45:00,44.8,11.9,30.00,SSW,202,0.0,0.0,26,0.00,CLR,,0.00,WeatherDisplay:10.37,2013-03-25 10:45:00,
2013-03-25 03:50:00,44.8,11.9,30.00,SSW,202,0.0,0.0,26,0.00,CLR,,0.00,WeatherDisplay:10.37,2013-03-25 10:50:00,
2013-03-25 03:55:00,44.7,11.9,29.99,SSW,202,0.0,0.0,26,0.00,CLR,,0.00,WeatherDisplay:10.37,2013-03-25 10:55:00,
2013-03-25 04:05:00,44.4,11.6,30.00,SSW,202,0.0,0.0,26,0.00,CLR,,0.00,WeatherDisplay:10.37,2013-03-25 11:05:00,
2013-03-25 04:10:00,44.4,11.6,30.00,SSW,202,0.0,0.0,26,0.00,CLR,,0.00,WeatherDisplay:10.37,2013-03-25 11:10:00,
2013-03-25 04:15:00,44.4,11.6,30.00,SSW,202,0.0,0.0,26,0.00,CLR,,0.00,WeatherDisplay:10.37,2013-03-25 11:15:00,
2013-03-25 04:20:00,44.2,12.3,30.00,SSW,202,0.0,0.0,27,0.00,CLR,,0.00,WeatherDisplay:10.37,2013-03-25 11:20:00,
2013-03-25 04:30:00,44.2,12.3,30.00,SSW,202,0.0,0.0,27,0.00,CLR,,0.00,WeatherDisplay:10.37,2013-03-25 11:30:00,
2013-03-25 04:40:00,44.1,12.2,30.00,SW,225,0.0,0.0,27,0.00,CLR,,0.00,WeatherDisplay:10.37,2013-03-25 11:40:00,
2013-03-25 04:45:00,44.1,12.2,30.00,SW,220,0.0,0.0,27,0.00,CLR,,0.00,WeatherDisplay:10.37,2013-03-25 11:45:00,
2013-03-25 04:50:00,44.1,12.2,30.00,SSW,209,0.0,0.0,27,0.00,CLR,,0.00,WeatherDisplay:10.37,2013-03-25 11:50:00,
2013-03-25 05:00:00,44.2,12.3,30.00,SSW,202,0.0,0.0,27,0.00,CLR,,0.00,WeatherDisplay:10.37,2013-03-25 12:00:00,
2013-03-25 05:05:00,44.1,12.2,30.00,SSW,202,0.0,0.0,27,0.00,CLR,,0.00,WeatherDisplay:10.37,2013-03-25 12:05:00,
2013-03-25 05:10:00,43.9,12.0,30.00,SSW,206,0.0,0.0,27,0.00,CLR,,0.00,WeatherDisplay:10.37,2013-03-25 12:10:00,
2013-03-25 05:20:00,43.7,11.8,30.00,SW,225,0.0,0.0,27,0.00,CLR,,0.00,WeatherDisplay:10.37,2013-03-25 12:20:00,
2013-03-25 05:30:00,43.5,11.7,30.00,SW,225,0.0,0.0,27,0.00,CLR,,0.00,WeatherDisplay:10.37,2013-03-25 12:30:00,
2013-03-25 05:40:00,43.5,11.7,30.01,SSW,202,0.0,0.0,27,0.00,CLR,,0.00,WeatherDisplay:10.37,2013-03-25 12:40:00,
2013-03-25 05:45:00,43.5,12.5,30.01,SSW,202,0.0,0.0,28,0.00,CLR,,0.00,WeatherDisplay:10.37,2013-03-25 12:45:00,
2013-03-25 05:55:00,43.5,11.7,30.01,SSW,202,0.0,0.0,27,0.00,CLR,,0.00,WeatherDisplay:10.37,2013-03-25 12:55:00,
2013-03-25 06:00:00,43.5,11.7,30.01,SSW,202,0.0,0.0,27,0.00,CLR,,0.00,WeatherDisplay:10.37,2013-03-25 13:00:00,
2013-03-25 06:05:00,43.5,12.5,30.01,SSW,202,0.0,0.0,28,0.00,CLR,,0.00,WeatherDisplay:10.37,2013-03-25 13:05:00,
2013-03-25 06:10:00,43.5,12.5,30.02,SSW,202,0.0,0.0,28,0.00,CLR,,0.00,WeatherDisplay:10.37,2013-03-25 13:10:00,
2013-03-25 06:20:00,43.5,12.5,30.02,SSW,202,0.0,0.0,28,0.00,CLR,,0.00,WeatherDisplay:10.37,2013-03-25 13:20:00,
2013-03-25 06:30:00,43.5,11.7,30.02,SSW,202,0.0,0.0,27,0.00,CLR,,0.00,WeatherDisplay:10.37,2013-03-25 13:30:00,
2013-03-25 06:40:00,43.5,13.3,30.03,SSW,202,0.0,0.0,29,0.00,CLR,,0.00,WeatherDisplay:10.37,2013-03-25 13:40:00,
2013-03-25 06:50:00,43.7,12.7,30.03,SSW,210,0.0,0.0,28,0.00,CLR,,0.00,WeatherDisplay:10.37,2013-03-25 13:50:00,
2013-03-25 07:00:00,44.2,13.1,30.03,SSW,204,0.0,0.0,28,0.00,CLR,,0.00,WeatherDisplay:10.37,2013-03-25 14:00:00,
2013-03-25 07:05:00,44.4,12.5,30.03,SSW,202,0.0,0.0,27,0.00,CLR,,0.00,WeatherDisplay:10.37,2013-03-25 14:05:00,
2013-03-25 07:10:00,45.0,12.9,30.03,SSW,202,0.0,0.0,27,0.00,CLR,,0.00,WeatherDisplay:10.37,2013-03-25 14:10:00,
2013-03-25 07:20:00,45.8,14.5,30.03,SW,224,0.0,0.0,28,0.00,CLR,,0.00,WeatherDisplay:10.37,2013-03-25 14:20:00,
2013-03-25 07:30:00,47.1,14.8,30.03,SW,225,0.0,0.0,27,0.00,CLR,,0.00,WeatherDisplay:10.37,2013-03-25 14:30:00,
2013-03-25 07:40:00,48.4,15.9,30.04,SW,225,0.0,0.0,27,0.00,CLR,,0.00,WeatherDisplay:10.37,2013-03-25 14:40:00,
2013-03-25 07:50:00,49.7,17.0,30.04,SW,225,0.0,0.0,27,0.00,CLR,,0.00,WeatherDisplay:10.37,2013-03-25 14:50:00,
2013-03-25 08:00:00,50.5,15.0,30.05,SW,225,0.0,0.0,24,0.00,CLR,,0.00,WeatherDisplay:10.37,2013-03-25 15:00:00,
2013-03-25 08:05:00,51.3,15.7,30.04,SW,225,0.0,0.0,24,0.00,CLR,,0.00,WeatherDisplay:10.37,2013-03-25 15:05:00,
2013-03-25 08:10:00,52.3,15.6,30.04,SW,225,0.0,0.0,23,0.00,CLR,,0.00,WeatherDisplay:10.37,2013-03-25 15:10:00,
2013-03-25 08:20:00,53.3,16.4,30.05,East,93,0.0,0.0,23,0.00,CLR,,0.00,WeatherDisplay:10.37,2013-03-25 15:20:00,
2013-03-25 08:30:00,54.3,17.3,30.05,ENE,68,0.0,0.0,23,0.00,CLR,,0.00,WeatherDisplay:10.37,2013-03-25 15:30:00,
2013-03-25 08:40:00,55.2,17.0,30.05,ENE,68,0.0,0.0,22,0.00,CLR,,0.00,WeatherDisplay:10.37,2013-03-25 15:40:00,
2013-03-25 08:50:00,56.3,17.9,30.05,ENE,68,0.0,0.0,22,0.00,CLR,,0.00,WeatherDisplay:10.37,2013-03-25 15:50:00,
2013-03-25 09:00:00,57.4,17.7,30.05,ENE,68,0.0,0.0,21,0.00,CLR,,0.00,WeatherDisplay:10.37,2013-03-25 16:00:00,
2013-03-25 09:05:00,57.8,18.0,30.05,ENE,67,0.0,0.0,21,0.00,CLR,,0.00,WeatherDisplay:10.37,2013-03-25 16:05:00,
2013-03-25 09:10:00,58.1,18.3,30.05,ENE,58,0.0,0.0,21,0.00,CLR,,0.00,WeatherDisplay:10.37,2013-03-25 16:10:00,
2013-03-25 09:20:00,58.9,17.8,30.05,NE,56,1.0,2.0,20,0.00,CLR,,0.00,WeatherDisplay:10.37,2013-03-25 16:20:00,
2013-03-25 09:30:00,60.1,18.8,30.05,NE,56,0.0,0.0,20,0.00,CLR,,0.00,WeatherDisplay:10.37,2013-03-25 16:30:00,
2013-03-25 09:40:00,61.2,19.7,30.06,ENE,59,5.0,6.0,20,0.00,CLR,,0.00,WeatherDisplay:10.37,2013-03-25 16:40:00,
2013-03-25 09:45:00,61.5,20.0,30.06,NE,53,1.0,1.0,20,0.00,CLR,,0.00,WeatherDisplay:10.37,2013-03-25 16:45:00,
2013-03-25 09:50:00,62.2,20.6,30.06,NNE,18,0.0,1.0,20,0.00,CLR,,0.00,WeatherDisplay:10.37,2013-03-25 16:50:00,
2013-03-25 10:00:00,63.1,20.2,30.06,NNE,20,0.0,0.0,19,0.00,CLR,,0.00,WeatherDisplay:10.37,2013-03-25 17:00:00,
2013-03-25 10:05:00,63.7,20.6,30.06,NE,41,0.0,0.0,19,0.00,CLR,,0.00,WeatherDisplay:10.37,2013-03-25 17:05:00,
2013-03-25 10:10:00,64.0,20.9,30.06,ENE,58,0.0,0.0,19,0.00,CLR,,0.00,WeatherDisplay:10.37,2013-03-25 17:10:00,
2013-03-25 10:15:00,64.6,21.3,30.06,NE,56,0.0,0.0,19,0.00,CLR,,0.00,WeatherDisplay:10.37,2013-03-25 17:15:00,
2013-03-25 10:20:00,65.0,21.7,30.06,ENE,61,0.0,0.0,19,0.00,CLR,,0.00,WeatherDisplay:10.37,2013-03-25 17:20:00,
2013-03-25 10:30:00,66.0,21.2,30.06,ENE,60,0.0,0.0,18,0.00,CLR,,0.00,WeatherDisplay:10.37,2013-03-25 17:30:00,
2013-03-25 10:40:00,66.7,21.8,30.06,ENE,76,0.0,0.0,18,0.00,CLR,,0.00,WeatherDisplay:10.37,2013-03-25 17:40:00,
2013-03-25 10:50:00,67.1,22.1,30.06,ESE,123,0.0,0.0,18,0.00,CLR,,0.00,WeatherDisplay:10.37,2013-03-25 17:50:00,
2013-03-25 11:00:00,67.8,22.7,30.05,NNE,27,6.0,7.0,18,0.00,CLR,,0.00,WeatherDisplay:10.37,2013-03-25 18:00:00,
2013-03-25 11:05:00,68.6,23.4,30.05,NNE,29,0.0,0.0,18,0.00,CLR,,0.00,WeatherDisplay:10.37,2013-03-25 18:05:00,
2013-03-25 11:10:00,69.1,22.4,30.05,NE,48,2.0,5.0,17,0.00,CLR,,0.00,WeatherDisplay:10.37,2013-03-25 18:10:00,
2013-03-25 11:20:00,69.8,23.0,30.05,ENE,68,0.0,0.0,17,0.00,CLR,,0.00,WeatherDisplay:10.37,2013-03-25 18:20:00,
2013-03-25 11:30:00,70.7,23.7,30.05,NNW,338,0.0,0.0,17,0.00,CLR,,0.00,WeatherDisplay:10.37,2013-03-25 18:30:00,
2013-03-25 11:35:00,71.2,24.1,30.05,North,8,0.0,0.0,17,0.00,CLR,,0.00,WeatherDisplay:10.37,2013-03-25 18:35:00,
2013-03-25 11:40:00,71.4,24.3,30.05,NNE,28,0.0,0.0,17,0.00,CLR,,0.00,WeatherDisplay:10.37,2013-03-25 18:40:00,
2013-03-25 11:50:00,72.1,23.4,30.05,ENE,65,0.0,0.0,16,0.00,CLR,,0.00,WeatherDisplay:10.37,2013-03-25 18:50:00,
2013-03-25 12:00:00,72.9,24.0,30.04,NNW,348,0.0,0.0,16,0.00,CLR,,0.00,WeatherDisplay:10.37,2013-03-25 19:00:00,
2013-03-25 12:10:00,73.9,24.9,30.04,NNE,31,0.0,0.0,16,0.00,CLR,,0.00,WeatherDisplay:10.37,2013-03-25 19:10:00,
2013-03-25 12:15:00,74.5,25.3,30.04,NNE,23,0.0,7.0,16,0.00,CLR,,0.00,WeatherDisplay:10.37,2013-03-25 19:15:00,
2013-03-25 12:20:00,75.0,25.7,30.04,ESE,109,0.0,7.0,16,0.00,CLR,,0.00,WeatherDisplay:10.37,2013-03-25 19:20:00,
2013-03-25 12:25:00,75.0,25.7,30.04,SE,129,0.0,0.0,16,0.00,CLR,,0.00,WeatherDisplay:10.37,2013-03-25 19:25:00,
2013-03-25 12:30:00,75.4,24.5,30.04,NE,39,5.0,5.0,15,0.00,CLR,,0.00,WeatherDisplay:10.37,2013-03-25 19:30:00,
2013-03-25 12:40:00,75.6,24.6,30.02,ENE,58,0.0,0.0,15,0.00,CLR,,0.00,WeatherDisplay:10.37,2013-03-25 19:40:00,
2013-03-25 12:50:00,76.3,25.2,30.02,NE,34,0.0,2.0,15,0.00,CLR,,0.00,WeatherDisplay:10.37,2013-03-25 19:50:00,
2013-03-25 12:55:00,76.3,25.2,30.02,NE,54,0.0,4.0,15,0.00,CLR,,0.00,WeatherDisplay:10.37,2013-03-25 19:55:00,
2013-03-25 13:05:00,76.8,25.7,30.02,NE,50,0.0,0.0,15,0.00,CLR,,0.00,WeatherDisplay:10.37,2013-03-25 20:05:00,
2013-03-25 13:10:00,77.4,26.1,30.02,NNE,26,0.0,0.0,15,0.00,CLR,,0.00,WeatherDisplay:10.37,2013-03-25 20:10:00,
2013-03-25 13:20:00,77.6,24.6,30.02,ENE,78,0.0,0.0,14,0.00,CLR,,0.00,WeatherDisplay:10.37,2013-03-25 20:20:00,
2013-03-25 13:30:00,76.8,25.6,30.02,SE,130,0.0,0.0,15,0.00,CLR,,0.00,WeatherDisplay:10.37,2013-03-25 20:30:00,
2013-03-25 13:40:00,77.4,26.1,30.01,WSW,245,0.0,0.0,15,0.00,CLR,,0.00,WeatherDisplay:10.37,2013-03-25 20:40:00,
2013-03-25 13:50:00,77.2,24.3,30.01,WSW,252,0.0,0.0,14,0.00,CLR,,0.00,WeatherDisplay:10.37,2013-03-25 20:50:00,
2013-03-25 14:00:00,76.8,24.0,30.00,WSW,241,0.0,0.0,14,0.00,CLR,,0.00,WeatherDisplay:10.37,2013-03-25 21:00:00,
2013-03-25 14:05:00,77.1,24.2,30.00,WSW,242,0.0,0.0,14,0.00,CLR,,0.00,WeatherDisplay:10.37,2013-03-25 21:05:00,
2013-03-25 14:10:00,77.5,24.5,30.00,NW,326,0.0,0.0,14,0.00,CLR,,0.00,WeatherDisplay:10.37,2013-03-25 21:10:00,
2013-03-25 14:20:00,78.8,25.6,30.00,WSW,248,0.0,3.0,14,0.00,CLR,,0.00,WeatherDisplay:10.37,2013-03-25 21:20:00,
2013-03-25 14:25:00,79.5,26.1,30.00,WSW,248,0.0,3.0,14,0.00,CLR,,0.00,WeatherDisplay:10.37,2013-03-25 21:25:00,
2013-03-25 14:30:00,79.9,26.4,30.00,WSW,248,0.0,7.0,14,0.00,CLR,,0.00,WeatherDisplay:10.37,2013-03-25 21:30:00,
2013-03-25 14:40:00,81.3,27.5,30.00,WSW,248,3.0,12.0,14,0.00,CLR,,0.00,WeatherDisplay:10.37,2013-03-25 21:40:00,
2013-03-25 14:45:00,81.5,27.7,30.00,WSW,248,3.0,9.0,14,0.00,CLR,,0.00,WeatherDisplay:10.37,2013-03-25 21:45:00,
2013-03-25 14:50:00,81.0,27.3,30.00,WSW,248,0.0,4.0,14,0.00,CLR,,0.00,WeatherDisplay:10.37,2013-03-25 21:50:00,
2013-03-25 14:55:00,81.1,27.4,29.99,WNW,288,0.0,0.0,14,0.00,CLR,,0.00,WeatherDisplay:10.37,2013-03-25 21:55:00,
2013-03-25 15:00:00,81.5,27.7,29.99,North,351,0.0,8.0,14,0.00,CLR,,0.00,WeatherDisplay:10.37,2013-03-25 22:00:00,
2013-03-25 15:05:00,82.2,26.4,30.00,WSW,248,3.0,8.0,13,0.00,CLR,,0.00,WeatherDisplay:10.37,2013-03-25 22:05:00,
2013-03-25 15:10:00,82.0,24.4,29.99,WSW,248,0.0,0.0,12,0.00,CLR,,0.00,WeatherDisplay:10.37,2013-03-25 22:10:00,
2013-03-25 15:20:00,81.3,23.8,29.99,WSW,248,0.0,0.0,12,0.00,CLR,,0.00,WeatherDisplay:10.37,2013-03-25 22:20:00,
2013-03-25 15:30:00,81.7,27.8,29.98,WSW,248,0.0,0.0,14,0.00,CLR,,0.00,WeatherDisplay:10.37,2013-03-25 22:30:00,
2013-03-25 15:40:00,82.0,28.1,29.98,WSW,248,0.0,0.0,14,0.00,CLR,,0.00,WeatherDisplay:10.37,2013-03-25 22:40:00,
2013-03-25 15:50:00,82.2,26.5,29.98,WSW,248,0.0,0.0,13,0.00,CLR,,0.00,WeatherDisplay:10.37,2013-03-25 22:50:00,
2013-03-25 16:00:00,82.6,26.7,29.98,WSW,248,0.0,3.0,13,0.00,CLR,,0.00,WeatherDisplay:10.37,2013-03-25 23:00:00,
2013-03-25 16:05:00,82.6,24.8,29.98,WSW,248,0.0,0.0,12,0.00,CLR,,0.00,WeatherDisplay:10.37,2013-03-25 23:05:00,
2013-03-25 16:10:00,82.6,24.8,29.98,WSW,248,0.0,0.0,12,0.00,CLR,,0.00,WeatherDisplay:10.37,2013-03-25 23:10:00,
2013-03-25 16:15:00,82.6,24.8,29.98,WSW,248,0.0,0.0,12,0.00,CLR,,0.00,WeatherDisplay:10.37,2013-03-25 23:15:00,
2013-03-25 16:20:00,82.2,24.5,29.98,WSW,248,0.0,0.0,12,0.00,CLR,,0.00,WeatherDisplay:10.37,2013-03-25 23:20:00,
2013-03-25 16:30:00,82.0,28.0,29.98,WSW,248,3.0,5.0,14,0.00,CLR,,0.00,WeatherDisplay:10.37,2013-03-25 23:30:00,
2013-03-25 16:40:00,81.1,27.4,29.97,WSW,248,0.0,0.0,14,0.00,CLR,,0.00,WeatherDisplay:10.37,2013-03-25 23:40:00,
2013-03-25 16:50:00,80.6,27.0,29.97,WSW,248,0.0,0.0,14,0.00,CLR,,0.00,WeatherDisplay:10.37,2013-03-25 23:50:00,
2013-03-25 17:00:00,79.9,26.4,29.97,WSW,248,0.0,6.0,14,0.00,CLR,,0.00,WeatherDisplay:10.37,2013-03-26 00:00:00,
2013-03-25 17:05:00,79.3,26.0,29.98,WSW,248,0.0,0.0,14,0.00,CLR,,0.00,WeatherDisplay:10.37,2013-03-26 00:05:00,
2013-03-25 17:10:00,79.0,25.7,29.98,WSW,248,0.0,0.0,14,0.00,CLR,,0.00,WeatherDisplay:10.37,2013-03-26 00:10:00,
2013-03-25 17:20:00,77.8,24.7,29.98,WSW,248,3.0,4.0,14,0.00,CLR,,0.00,WeatherDisplay:10.37,2013-03-26 00:20:00,
2013-03-25 17:30:00,76.7,23.9,29.98,WSW,248,0.0,7.0,14,0.00,CLR,,0.00,WeatherDisplay:10.37,2013-03-26 00:30:00,
2013-03-25 17:40:00,75.6,24.6,29.98,WSW,248,0.0,0.0,15,0.00,CLR,,0.00,WeatherDisplay:10.37,2013-03-26 00:40:00,
2013-03-25 17:50:00,74.5,23.8,29.98,WSW,248,0.0,0.0,15,0.00,CLR,,0.00,WeatherDisplay:10.37,2013-03-26 00:50:00,
2013-03-25 17:55:00,74.2,23.5,29.98,WSW,248,0.0,0.0,15,0.00,CLR,,0.00,WeatherDisplay:10.37,2013-03-26 00:55:00,
2013-03-25 18:00:00,73.5,23.0,29.98,WSW,251,0.0,0.0,15,0.00,CLR,,0.00,WeatherDisplay:10.37,2013-03-26 01:00:00,
2013-03-25 18:05:00,73.0,22.6,29.98,WSW,257,0.0,0.0,15,0.00,CLR,,0.00,WeatherDisplay:10.37,2013-03-26 01:05:00,
2013-03-25 18:10:00,72.7,22.3,29.98,WSW,252,0.0,0.0,15,0.00,CLR,,0.00,WeatherDisplay:10.37,2013-03-26 01:10:00,
2013-03-25 18:20:00,71.5,21.3,29.98,NNW,340,0.0,0.0,15,0.00,CLR,,0.00,WeatherDisplay:10.37,2013-03-26 01:20:00,
2013-03-25 18:30:00,70.8,20.8,29.99,NNE,22,0.0,0.0,15,0.00,CLR,,0.00,WeatherDisplay:10.37,2013-03-26 01:30:00,
2013-03-25 18:35:00,70.3,22.0,29.99,NNE,18,0.0,0.0,16,0.00,CLR,,0.00,WeatherDisplay:10.37,2013-03-26 01:35:00,
2013-03-25 18:40:00,70.0,21.7,29.99,NE,38,0.0,0.0,16,0.00,CLR,,0.00,WeatherDisplay:10.37,2013-03-26 01:40:00,
2013-03-25 18:50:00,69.4,21.2,29.99,NE,48,0.0,0.0,16,0.00,CLR,,0.00,WeatherDisplay:10.37,2013-03-26 01:50:00,
2013-03-25 19:00:00,68.5,20.5,30.00,NE,45,0.0,0.0,16,0.00,CLR,,0.00,WeatherDisplay:10.37,2013-03-26 02:00:00,
2013-03-25 19:05:00,67.8,19.9,30.00,NE,35,0.0,0.0,16,0.00,CLR,,0.00,WeatherDisplay:10.37,2013-03-26 02:05:00,
2013-03-25 19:10:00,67.6,21.2,30.00,NNW,328,0.0,0.0,17,0.00,CLR,,0.00,WeatherDisplay:10.37,2013-03-26 02:10:00,
2013-03-25 19:20:00,66.8,20.5,30.01,WNW,292,0.0,0.0,17,0.00,CLR,,0.00,WeatherDisplay:10.37,2013-03-26 02:20:00,
2013-03-25 19:25:00,66.0,19.9,30.01,WNW,292,0.0,0.0,17,0.00,CLR,,0.00,WeatherDisplay:10.37,2013-03-26 02:25:00,
2013-03-25 19:30:00,65.6,19.5,30.01,West,274,0.0,0.0,17,0.00,CLR,,0.00,WeatherDisplay:10.37,2013-03-26 02:30:00,
2013-03-25 19:40:00,64.8,20.2,30.01,West,270,0.0,0.0,18,0.00,CLR,,0.00,WeatherDisplay:10.37,2013-03-26 02:40:00,
2013-03-25 19:50:00,64.0,20.9,30.01,West,270,0.0,0.0,19,0.00,CLR,,0.00,WeatherDisplay:10.37,2013-03-26 02:50:00,
2013-03-25 20:00:00,63.1,20.2,30.02,West,270,0.0,0.0,19,0.00,CLR,,0.00,WeatherDisplay:10.37,2013-03-26 03:00:00,
2013-03-25 20:05:00,62.8,19.9,30.02,West,270,0.0,0.0,19,0.00,CLR,,0.00,WeatherDisplay:10.37,2013-03-26 03:05:00,
2013-03-25 20:10:00,62.4,19.6,30.02,West,270,0.0,0.0,19,0.00,CLR,,0.00,WeatherDisplay:10.37,2013-03-26 03:10:00,
2013-03-25 20:20:00,61.3,19.9,30.02,West,270,0.0,0.0,20,0.00,CLR,,0.00,WeatherDisplay:10.37,2013-03-26 03:20:00,
2013-03-25 20:30:00,60.6,19.2,30.02,West,270,0.0,0.0,20,0.00,CLR,,0.00,WeatherDisplay:10.37,2013-03-26 03:30:00,
2013-03-25 20:40:00,59.9,18.7,30.03,West,270,0.0,0.0,20,0.00,CLR,,0.00,WeatherDisplay:10.37,2013-03-26 03:40:00,
2013-03-25 20:50:00,59.4,18.2,30.03,West,270,0.0,0.0,20,0.00,CLR,,0.00,WeatherDisplay:10.37,2013-03-26 03:50:00,
2013-03-25 20:55:00,58.8,18.9,30.03,West,270,0.0,0.0,21,0.00,CLR,,0.00,WeatherDisplay:10.37,2013-03-26 03:55:00,
2013-03-25 21:00:00,58.8,18.9,30.03,West,270,0.0,0.0,21,0.00,CLR,,0.00,WeatherDisplay:10.37,2013-03-26 04:00:00,
2013-03-25 21:05:00,58.6,18.8,30.03,West,270,0.0,0.0,21,0.00,CLR,,0.00,WeatherDisplay:10.37,2013-03-26 04:05:00,
2013-03-25 21:10:00,58.6,18.8,30.04,West,260,0.0,0.0,21,0.00,CLR,,0.00,WeatherDisplay:10.37,2013-03-26 04:10:00,
2013-03-25 21:15:00,58.2,18.4,30.03,WSW,249,0.0,0.0,21,0.00,CLR,,0.00,WeatherDisplay:10.37,2013-03-26 04:15:00,
2013-03-25 21:20:00,57.9,18.2,30.04,WSW,243,0.0,0.0,21,0.00,CLR,,0.00,WeatherDisplay:10.37,2013-03-26 04:20:00,
2013-03-25 21:30:00,57.4,18.8,30.04,SW,225,0.0,0.0,22,0.00,CLR,,0.00,WeatherDisplay:10.37,2013-03-26 04:30:00,
2013-03-25 21:35:00,57.2,18.6,30.04,SSW,206,0.0,0.0,22,0.00,CLR,,0.00,WeatherDisplay:10.37,2013-03-26 04:35:00,
2013-03-25 21:40:00,57.0,18.5,30.05,East,87,0.0,0.0,22,0.00,CLR,,0.00,WeatherDisplay:10.37,2013-03-26 04:40:00,
2013-03-25 21:50:00,56.3,17.9,30.05,NE,45,0.0,0.0,22,0.00,CLR,,0.00,WeatherDisplay:10.37,2013-03-26 04:50:00,
2013-03-25 22:00:00,55.9,18.6,30.05,NE,45,0.0,0.0,23,0.00,CLR,,0.00,WeatherDisplay:10.37,2013-03-26 05:00:00,
2013-03-25 22:05:00,55.6,18.3,30.05,NE,45,0.0,0.0,23,0.00,CLR,,0.00,WeatherDisplay:10.37,2013-03-26 05:05:00,
2013-03-25 22:10:00,55.6,18.3,30.05,NE,45,0.0,0.0,23,0.00,CLR,,0.00,WeatherDisplay:10.37,2013-03-26 05:10:00,
2013-03-25 22:20:00,55.1,17.9,30.05,ENE,57,0.0,0.0,23,0.00,CLR,,0.00,WeatherDisplay:10.37,2013-03-26 05:20:00,
2013-03-25 22:25:00,54.7,17.6,30.05,ESE,109,0.0,0.0,23,0.00,CLR,,0.00,WeatherDisplay:10.37,2013-03-26 05:25:00,
2013-03-25 22:30:00,54.5,17.4,30.05,SE,135,0.0,0.0,23,0.00,CLR,,0.00,WeatherDisplay:10.37,2013-03-26 05:30:00,
2013-03-25 22:40:00,54.1,18.1,30.05,SE,141,0.0,0.0,24,0.00,CLR,,0.00,WeatherDisplay:10.37,2013-03-26 05:40:00,
2013-03-25 22:50:00,53.8,18.7,30.05,SSE,158,0.0,0.0,25,0.00,CLR,,0.00,WeatherDisplay:10.37,2013-03-26 05:50:00,
2013-03-25 23:00:00,53.4,18.4,30.05,SSE,158,0.0,0.0,25,0.00,CLR,,0.00,WeatherDisplay:10.37,2013-03-26 06:00:00,
2013-03-25 23:10:00,52.9,17.0,30.05,South,188,0.0,0.0,24,0.00,CLR,,0.00,WeatherDisplay:10.37,2013-03-26 06:10:00,
2013-03-25 23:20:00,52.3,18.4,30.05,SSW,202,0.0,0.0,26,0.00,CLR,,0.00,WeatherDisplay:10.37,2013-03-26 06:20:00,
2013-03-25 23:30:00,52.0,18.1,30.05,SSW,202,0.0,0.0,26,0.00,CLR,,0.00,WeatherDisplay:10.37,2013-03-26 06:30:00,
2013-03-25 23:40:00,52.0,18.1,30.05,SW,219,0.0,0.0,26,0.00,CLR,,0.00,WeatherDisplay:10.37,2013-03-26 06:40:00,
2013-03-25 23:50:00,52.0,18.1,30.05,SW,225,0.0,0.0,26,0.00,CLR,,0.00,WeatherDisplay:10.37,2013-03-26 06:50:00,